Weather History for KHRI - October, 2011

Change the Weather History Date:

Tuesday, October 11, 2011

  Actual Average Record
Temperature  
Mean Temperature 58 °F -  
Max Temperature 69 °F 69 °F 86 °F (1934)
Min Temperature 48 °F 39 °F 21 °F (2008)
Degree Days  
Heating Degree Days 7    
Growing Degree Days 8 (Base 50)    
Moisture  
Dew Point 46 °F    
Average Humidity 65    
Maximum Humidity 97    
Minimum Humidity 39    
Precipitation  
Precipitation 0.01 in - - ()
Sea Level Pressure  
Sea Level Pressure 29.86 in    
Wind  
Wind Speed 8 mph (WSW)    
Max Wind Speed 22 mph    
Max Gust Speed 31 mph    
Visibility 10 miles    
Events Rain    
Averages and records for this station are not official NWS values.
T = Trace of Precipitation, MM = Missing Value Source: NWS Daily Summary

Daily Weather History Graph

Daily Weather History Graph

Search for Another Location

Airport or City:

Trip Planner

Search our weather history database for the weather conditions in past years. The results will help you decide how hot, cold, wet, or windy it might be!

Date:

Astronomy

Oct. 11, 2011 Rise Set
Actual Time 7:08 AM PDT 6:18 PM PDT
Civil Twilight 6:38 AM PDT 6:48 PM PDT
Nautical Twilight 6:03 AM PDT 7:22 PM PDT
Astronomical Twilight 5:29 AM PDT 7:57 PM PDT
Moon 5:49 PM PDT (10/11) 6:53 AM PDT (10/11)
Length of Visible Light 12h 10m
Length of Day
11h 10m
Full, 100% of the Moon is Illuminated
Oct 11
Full
Oct 11
Full
Oct 19
Last Quarter
Oct 26
New
Nov 2
First Quarter

Hourly Weather History & Observations

Time (PDT) Temp. Dew Point Humidity Pressure Visibility Wind Dir Wind Speed Gust Speed Precip Events Conditions
12:53 AM 55.9 °F 50.0 °F 80% 29.65 in 10.0 mi Calm Calm - N/A   Overcast
1:53 AM 55.0 °F 51.1 °F 86% 29.65 in 10.0 mi SSE 5.8 mph - N/A   Clear
2:53 AM 48.9 °F 48.0 °F 97% 29.66 in 10.0 mi West 4.6 mph - N/A   Scattered Clouds
3:53 AM 55.0 °F 50.0 °F 83% 29.67 in 10.0 mi West 3.5 mph - N/A   Mostly Cloudy
4:53 AM 53.1 °F 48.9 °F 86% 29.67 in 10.0 mi South 8.1 mph - N/A   Mostly Cloudy
5:53 AM 54.0 °F 50.0 °F 86% 29.70 in 10.0 mi South 8.1 mph - N/A   Overcast
7:53 AM 55.9 °F 48.0 °F 75% 29.75 in 10.0 mi SW 9.2 mph - N/A   Mostly Cloudy
8:53 AM 55.0 °F 48.9 °F 80% 29.81 in 10.0 mi WSW 16.1 mph - 0.01 in Rain Light Rain
9:53 AM 57.9 °F 48.9 °F 72% 29.83 in 10.0 mi SW 15.0 mph - 0.00 in   Clear
10:53 AM 63.0 °F 48.0 °F 58% 29.86 in 10.0 mi SW 11.5 mph - N/A   Clear
11:53 AM 64.9 °F 45.0 °F 48% 29.88 in 10.0 mi WSW 21.9 mph 31.1 mph N/A   Partly Cloudy
12:53 PM 66.0 °F 46.0 °F 48% 29.89 in 10.0 mi West 17.3 mph 23.0 mph N/A   Partly Cloudy
1:53 PM 66.9 °F 45.0 °F 45% 29.90 in 10.0 mi West 20.7 mph 27.6 mph N/A   Mostly Cloudy
2:53 PM 68.0 °F 43.0 °F 40% 29.91 in 10.0 mi WSW 19.6 mph 23.0 mph N/A   Clear
3:53 PM 68.0 °F 42.1 °F 39% 29.92 in 10.0 mi West 10.4 mph 20.7 mph N/A   Clear
4:53 PM 66.9 °F 42.1 °F 40% 29.94 in 10.0 mi West 11.5 mph - N/A   Scattered Clouds
5:53 PM 62.1 °F 44.1 °F 52% 29.96 in 10.0 mi West 10.4 mph - N/A   Clear
6:53 PM 60.1 °F 44.1 °F 55% 30.01 in 10.0 mi West 9.2 mph - N/A   Scattered Clouds
7:53 PM 59.0 °F 44.1 °F 58% 30.03 in 10.0 mi WSW 10.4 mph 17.3 mph N/A   Scattered Clouds
8:53 PM 57.9 °F 44.1 °F 60% 30.06 in 10.0 mi West 8.1 mph - N/A   Overcast
9:53 PM 53.1 °F 45.0 °F 74% 30.07 in 10.0 mi South 8.1 mph - N/A   Partly Cloudy
10:53 PM 52.0 °F 44.1 °F 74% 30.09 in 10.0 mi South 4.6 mph - N/A   Clear